Weather WX

World > North America > United States > North Carolina

Osceola, North Carolina Regional Weather

Lat: 36.23N, Lon: 79.62W
Wx Zone: NCZ022
Warning FLW WEATHER ALERT - (More Info. Click Here) Warning
Feedback

Osceola, NC Regional Weather

Expires:201907191000;;293729
ASUS42 KRAH 190910
RWRRAH
NORTH CAROLINA WEATHER ROUNDUP
NATIONAL WEATHER SERVICE RALEIGH NC
500 AM EDT FRI JUL 19 2019

NOTE: "FAIR" INDICATES FEW OR NO CLOUDS BELOW 12,000 FEET WITH NO
SIGNIFICANT WEATHER AND/OR OBSTRUCTIONS TO VISIBILITY.


NCZ021-022-025-041-071-084-088-191000-
CENTRAL NORTH CAROLINA
  
CITY           SKY/WX    TMP DP  RH WIND       PRES   REMARKS
CHARLOTTE      FAIR      75  71  87 S3        30.00S                  
GREENSBORO     FAIR      74  72  93 CALM      29.99S                  
WINSTON-SALEM  FAIR      74  71  91 NW3       30.01S                  
RALEIGH-DURHAM MOCLDY    75  71  87 W3        29.97S                  
FORT BRAGG     FAIR      77  72  83 S5        29.98R                  
FAYETTEVILLE   FAIR      75  72  90 S8        29.98R                  
BURLINGTON     FAIR      76  72  87 SW3       29.98S                  
ROXBORO        FAIR      72  70  94 CALM      29.99S                  
HENDERSON      FAIR      71  68  89 CALM      29.97R                  
LOUISBURG      FAIR      73  72  94 SW5       29.99S                  
LAURINBURG     FAIR      76  71  85 SW7       30.00R                  
$$
 

SKY/WX - Weather  TMP - Temperature  DP - Dew Point  RH - Relative Humidity
WIND - Wind Direction/Speed PRES - Barometric Pressure VSB - Visibility
WCI - Wind Chill Index E13G22 Wind - East Wind 13 mph/Gusts of 22 mph